[[{"header":{"parameterUnit":"m.s-1","parameterCategory":1,"la1":30.2991,"la2":30.254,"lo1":-89.0895,"lo2":-89.0444,"dy":0.0017,"dx":0.0017,"nx":28,"ny":28,"refTime":"2025-06-05T03:00:00:Z","depth":0,"parameterNumber":2,"parameterNumberName":"U-component_of_WINDS"},"data":[0,0,0,0,0,0,0,0,0,0,0,0,0,0,0,0,0,0,0,0,0,0,0,0,0,0,0,0,0,0,0,0,0,0,0,0,0,0,0,0,0,0,0,0,0,0,0,0,0,0,0,0,0,0,0,0,0,0,2.6583,2.6584,0,2.6737,2.6739,2.6741,2.6709,2.6706,2.6704,2.6701,2.6861,2.6868,2.6875,0,0,0,0,0,0,0,0,0,0,0,0,0,2.6262,2.6268,2.6582,2.6584,2.6586,2.6737,2.6739,2.6741,2.671,2.6706,2.6703,2.67,2.6859,2.6867,2.6876,0,0,0,0,0,0,0,0,0,0,0,0,0,2.6407,2.627,2.6582,2.6589,2.6591,2.6736,2.6739,2.6742,2.671,2.6706,2.6702,2.6698,2.6856,2.6867,2.6877,2.7026,0,0,2.6908,2.6913,0,0,0,0,0,0,0,0,2.6399,2.6419,2.6586,2.6589,2.6591,2.6699,2.6685,2.6837,2.6711,2.6665,2.6701,2.6696,2.6811,2.6825,2.6863,2.7033,2.704,2.6909,2.6916,2.692,2.6923,0,0,0,0,0,0,0,2.6389,2.6412,2.6644,2.6588,2.6592,2.6584,2.66,2.6713,2.676,2.6669,2.6667,2.6686,2.6812,2.6853,2.6867,2.7043,2.6909,2.6918,2.6925,2.6929,2.7342,2.7347,0,0,0,0,0,0,2.6376,2.6404,2.6639,2.6648,2.6483,2.6594,2.6612,2.6669,2.6759,2.6768,2.6689,2.6683,2.6838,2.6855,2.6872,2.7053,2.692,2.693,2.6936,2.7338,2.7343,2.7348,0,0,0,0,0,0,2.6369,2.6397,2.6632,2.6526,2.6555,2.6604,2.6669,2.6674,2.6716,2.6774,2.6782,2.6723,2.6835,2.6858,2.6988,2.7058,2.6934,2.6944,2.7332,2.7339,2.7346,2.7415,0,0,0,0,0,0,2.636,2.6395,2.6452,2.6527,2.6561,2.6745,2.6673,2.668,2.6734,2.6728,2.6808,2.6817,2.6834,2.6972,2.6998,2.707,2.6952,2.7326,2.7335,2.7344,2.7406,2.7423,2.7438,0,0,0,0,0,2.6349,2.6466,2.6455,2.6484,2.6633,2.6749,2.6768,2.6784,2.6739,2.6797,2.6834,2.6815,2.7046,2.6986,2.7015,2.7091,2.7322,2.7333,2.7343,2.7399,2.742,2.7437,0,0,0,0,0,0,2.6399,2.6476,2.6465,2.6609,2.6673,2.6743,2.6817,2.6806,2.6884,2.6875,2.6892,2.691,2.7042,2.7079,2.7011,2.7239,2.7177,2.7194,2.721,2.7231,2.7246,2.7234,2.6961,0,0,0,0,0,2.6426,2.6514,2.6577,2.6698,2.673,2.6768,2.6819,2.6826,2.6893,2.692,2.6966,2.7032,2.712,2.7177,2.7261,2.7411,2.7428,2.7478,2.7493,2.7506,2.752,2.7603,2.7625,2.7384,2.7384,2.7383,0,0,2.6485,2.6538,2.6592,2.6709,2.6759,2.685,2.6791,2.689,2.6957,2.6935,2.706,2.7097,2.7171,2.7312,2.7376,2.7347,2.7591,2.7519,2.7529,2.7537,2.7616,2.7639,2.7659,2.7391,2.739,2.7388,0,0,2.6637,2.6686,2.6793,2.6843,2.6919,2.6944,2.6969,2.7042,2.7065,2.719,2.7175,2.7256,2.7406,2.746,2.7507,2.7679,2.7664,2.7706,2.7788,2.7868,2.7887,2.7904,2.7965,2.7987,2.772,2.772,2.772,0,2.6701,2.6836,2.6849,2.6949,2.7001,2.6984,2.7092,2.714,2.724,2.7277,2.7242,2.743,2.7479,2.7632,2.7674,2.7712,2.7742,2.7697,2.7883,2.79,2.7916,2.7975,2.7998,2.7725,2.7724,2.7724,2.7723,0,2.691,2.7004,2.7081,2.7176,2.7237,2.7341,2.7369,2.7429,2.743,2.7458,2.7586,2.7644,2.7739,2.7776,2.7778,2.7929,2.7909,2.7878,2.7817,2.7943,2.7999,2.8022,2.7731,2.773,2.7728,2.7727,0,0,2.7099,2.72,2.7228,2.7271,2.7353,2.7426,2.7529,2.762,2.7672,2.7741,2.7827,2.7954,2.7926,2.798,2.7988,2.8058,2.819,2.8019,2.8021,2.8049,2.836,2.8383,2.8408,2.818,2.8184,2.8188,2.8354,0,2.726,2.744,2.7454,2.7617,2.7703,2.7688,2.7777,2.7837,2.7866,2.7944,2.7976,2.8066,2.8022,2.8054,2.8123,2.8159,2.8253,2.8148,2.8261,2.8265,2.8244,2.8438,2.8462,2.8616,2.8376,2.8379,2.8382,0,2.7471,2.7545,2.7716,2.7785,2.7822,2.7902,2.7987,2.8062,2.813,2.8146,2.8205,2.8203,2.8309,2.8242,2.8388,2.8316,2.8363,2.8389,2.8395,2.8407,2.8332,2.8455,2.8665,2.8689,2.8416,2.8414,2.8411,0,2.7592,2.7735,2.7856,2.7893,2.7977,2.8033,2.8071,2.8134,2.8188,2.8263,2.8298,2.8384,2.8431,2.8498,2.852,2.8469,2.8665,2.86,2.8682,2.8681,2.8724,2.8721,2.8946,2.8754,2.8754,2.8753,2.8753,0,2.777,2.7875,2.7911,2.7986,2.8103,2.8118,2.8234,2.8268,2.8325,2.8406,2.8398,2.8474,2.8497,2.8578,2.8595,2.8714,2.8735,2.8751,2.8755,2.8752,2.875,2.8784,2.8774,2.8759,2.8758,2.8757,2.8756,0,2.7926,2.7954,2.8084,2.8152,2.8172,2.8255,2.8314,2.8385,2.8412,2.8514,2.8539,2.8582,2.8676,2.8704,2.8817,2.8829,2.8968,2.8961,2.8945,2.8945,2.9025,2.9017,2.9279,2.9314,2.9099,2.9101,2.9103,0,2.8038,2.8118,2.8194,2.8247,2.8287,2.8373,2.8428,2.8446,2.8503,2.8586,2.8648,2.874,2.8816,2.8967,2.9008,2.9095,2.9091,2.9177,2.9104,2.9099,2.9093,2.9088,2.9096,2.9191,2.9193,2.9195,2.9196,0,2.8233,2.8243,2.8322,2.8406,2.8472,2.8539,2.8603,2.8648,2.8675,2.874,2.8836,2.8894,2.9009,2.9101,2.9189,2.9228,2.9218,2.9219,2.9242,2.9241,2.9228,2.9236,2.8983,2.9213,2.9211,2.921,2.9209,2.9208,2.8371,2.8442,2.8506,2.8594,2.8644,2.8705,2.8775,2.881,2.889,2.8985,2.899,2.9094,2.9159,2.9276,2.932,2.9401,2.9376,2.941,2.9419,2.9427,2.9434,2.9214,2.9417,2.9417,2.9416,2.9416,2.9416,0,2.8566,2.8607,2.8688,2.8778,2.8847,2.8829,2.89,2.8959,2.9051,2.9112,2.9186,2.9295,2.9385,2.9432,2.9521,2.9578,2.9575,2.96,2.9597,2.9606,2.9451,2.9422,2.9601,2.9601,2.9601,2.9601,2.9601,2.9601,2.8676,2.8795,2.8812,2.8955,2.8995,2.9096,2.9138,2.9193,2.9242,2.9365,2.9439,2.9469,2.9525,2.9618,2.9699,2.971,2.9744,2.9773,2.9782,2.9636,2.9617,2.9599,2.9572,2.978,2.978,2.993,2.9931,2.9932]},{"header":{"parameterUnit":"m.s-1","parameterCategory":1,"la1":30.2991,"la2":30.254,"lo1":-89.0895,"lo2":-89.0444,"dy":0.0017,"dx":0.0017,"nx":28,"ny":28,"refTime":"2025-06-05T03:00:00:Z","depth":0,"parameterNumber":3,"parameterNumberName":"V-component_of_WINDS"},"data":[0,0,0,0,0,0,0,0,0,0,0,0,0,0,0,0,0,0,0,0,0,0,0,0,0,0,0,0,0,0,0,0,0,0,0,0,0,0,0,0,0,0,0,0,0,0,0,0,0,0,0,0,0,0,0,0,0,0,4.9426,4.9427,0,4.9588,4.959,4.9592,4.9556,4.9553,4.9549,4.9547,4.9705,4.9712,4.9719,0,0,0,0,0,0,0,0,0,0,0,0,0,4.9076,4.9083,4.9425,4.9428,4.943,4.9588,4.959,4.9592,4.9556,4.9552,4.9549,4.9545,4.9703,4.9711,4.972,0,0,0,0,0,0,0,0,0,0,0,0,0,4.9232,4.9085,4.9425,4.9431,4.9433,4.9587,4.959,4.9593,4.9557,4.9552,4.9548,4.9544,4.97,4.971,4.9721,4.9877,0,0,4.9753,4.9758,0,0,0,0,0,0,0,0,4.9223,4.9245,4.9428,4.9431,4.9433,4.9547,4.9525,4.9688,4.9558,4.951,4.9547,4.9541,4.9656,4.967,4.971,4.9884,4.9891,4.9754,4.9761,4.9765,4.9768,0,0,0,0,0,0,0,4.9213,4.9238,4.9489,4.9431,4.9434,4.9423,4.944,4.9556,4.9606,4.9513,4.9511,4.9531,4.9656,4.97,4.9713,4.9894,4.9754,4.9763,4.977,4.9774,5.0203,5.0208,0,0,0,0,0,0,4.9201,4.9229,4.9484,4.9494,4.9315,4.9433,4.9452,4.9515,4.9605,4.9614,4.9535,4.9529,4.9684,4.9701,4.9719,4.9907,4.9765,4.9775,4.9781,5.0198,5.0204,5.021,0,0,0,0,0,0,4.9193,4.9224,4.9478,4.9361,4.9393,4.9444,4.9515,4.9521,4.9564,4.9621,4.9629,4.9571,4.9681,4.9704,4.9838,4.9912,4.978,4.9789,5.0192,5.02,5.0207,5.0286,0,0,0,0,0,0,4.9183,4.9221,4.9283,4.9363,4.9399,4.9597,4.9519,4.9527,4.9583,4.9577,4.9657,4.9665,4.9679,4.9823,4.9849,4.9924,4.9798,5.0186,5.0196,5.0204,5.0277,5.0295,5.0311,0,0,0,0,0,4.9171,4.9297,4.9287,4.9318,4.9478,4.9602,4.9622,4.9638,4.959,4.9651,4.9687,4.9663,4.99,4.9837,4.9866,4.9946,5.0181,5.0193,5.0204,5.0269,5.0291,5.031,0,0,0,0,0,0,4.9222,4.9308,4.9297,4.9453,4.9521,4.9596,4.9673,4.9661,4.9741,4.9732,4.9745,4.9763,4.99,4.9936,4.9864,5.0101,5.0033,5.0051,5.0073,5.0095,5.0111,5.01,4.9806,0,0,0,0,0,4.9252,4.9348,4.9417,4.9548,4.9583,4.9622,4.9677,4.9683,4.9752,4.978,4.9826,4.9892,4.9981,5.004,5.0125,5.0281,5.0297,5.035,5.0367,5.0381,5.0396,5.048,5.0504,5.0247,5.0247,5.0247,0,0,4.9314,4.9373,4.9432,4.956,4.9613,4.9709,4.9647,4.9751,4.9823,4.9795,4.9926,4.9962,5.0036,5.0182,5.0248,5.0216,5.0471,5.0395,5.0406,5.0414,5.0495,5.0519,5.054,5.0255,5.0253,5.0252,0,0,4.9477,4.9531,4.9647,4.9702,4.9784,4.9809,4.9837,4.9914,4.9938,5.0069,5.005,5.0133,5.0287,5.0341,5.0388,5.0571,5.0551,5.0598,5.0686,5.0768,5.0789,5.0807,5.0871,5.0894,5.0612,5.0613,5.0613,0,4.9543,4.9691,4.9707,4.9815,4.987,4.9852,4.9968,5.0019,5.0123,5.0161,5.0124,5.0317,5.0365,5.0523,5.0568,5.0607,5.0637,5.0589,5.0785,5.0803,5.082,5.0882,5.0906,5.0618,5.0617,5.0617,5.0616,0,4.9767,4.987,4.9952,5.0057,5.0122,5.0233,5.0263,5.0327,5.0327,5.0356,5.0489,5.0546,5.0643,5.0681,5.0681,5.0839,5.0816,5.0782,5.0714,5.085,5.0908,5.0931,5.0625,5.0623,5.0622,5.0621,0,0,4.9967,5.008,5.011,5.0157,5.0246,5.0324,5.0432,5.0529,5.0583,5.0655,5.0745,5.0876,5.0845,5.0898,5.0904,5.0976,5.1116,5.0933,5.0935,5.0965,5.1292,5.1317,5.1345,5.1104,5.1108,5.1112,5.1286,0,5.0137,5.0333,5.0351,5.0525,5.0619,5.0602,5.0697,5.076,5.0789,5.0871,5.0902,5.0994,5.0947,5.0979,5.105,5.1084,5.1182,5.1072,5.1186,5.119,5.1168,5.1375,5.1402,5.1564,5.1309,5.1312,5.1315,0,5.0363,5.0445,5.0629,5.0705,5.0745,5.083,5.092,5.0999,5.1069,5.1085,5.1145,5.1141,5.125,5.1179,5.1328,5.1253,5.13,5.1324,5.133,5.1341,5.1261,5.1391,5.1616,5.164,5.1351,5.1348,5.1346,0,5.049,5.0645,5.0776,5.0817,5.0908,5.0968,5.1008,5.1075,5.1132,5.1209,5.1245,5.1333,5.1381,5.1448,5.1467,5.1413,5.1616,5.1546,5.163,5.163,5.1674,5.1671,5.1909,5.1704,5.1704,5.1704,5.1703,0,5.0678,5.0792,5.0834,5.0915,5.104,5.1058,5.1181,5.1217,5.1276,5.1361,5.1351,5.143,5.1451,5.1533,5.1548,5.1669,5.169,5.1705,5.1707,5.1706,5.1704,5.1737,5.1726,5.171,5.1709,5.1707,5.1706,0,5.0841,5.0875,5.1016,5.1092,5.1113,5.1202,5.1266,5.1341,5.1369,5.1477,5.1503,5.1545,5.1642,5.1667,5.1782,5.1791,5.1934,5.1926,5.1911,5.1911,5.1994,5.1986,5.2262,5.2298,5.207,5.2072,5.2074,0,5.096,5.1047,5.1133,5.119,5.1234,5.1327,5.1385,5.1405,5.1466,5.1553,5.1617,5.1713,5.1791,5.1945,5.1984,5.2071,5.2065,5.2155,5.2078,5.2073,5.2066,5.206,5.2069,5.217,5.2172,5.2174,5.2176,0,5.1166,5.1178,5.1265,5.1358,5.1428,5.1501,5.1571,5.1618,5.1647,5.1715,5.1816,5.1876,5.1994,5.2088,5.2176,5.2214,5.22,5.22,5.2224,5.2224,5.2212,5.2219,5.1951,5.2194,5.2192,5.2191,5.219,5.2189,5.131,5.1387,5.1459,5.1556,5.1611,5.1676,5.1751,5.1789,5.1874,5.1974,5.1979,5.2087,5.2153,5.227,5.2314,5.2396,5.2369,5.2404,5.2413,5.2421,5.2428,5.2199,5.2412,5.2412,5.2411,5.2411,5.241,0,5.1515,5.1561,5.165,5.1749,5.1825,5.1807,5.1883,5.1946,5.2043,5.2107,5.2185,5.2298,5.239,5.2437,5.2526,5.2584,5.2579,5.2606,5.2602,5.2611,5.2448,5.2418,5.2609,5.2609,5.2609,5.2609,5.2609,5.2608,5.1631,5.176,5.1781,5.1936,5.198,5.2088,5.2133,5.2192,5.2244,5.2373,5.245,5.2481,5.2538,5.2632,5.2714,5.2725,5.2758,5.2789,5.2796,5.2643,5.2623,5.2603,5.2575,5.2796,5.2796,5.2953,5.2954,5.2955]}]]